STARLINK-11466, 62220

Orbit data source: Space-Track

STARLINK-11466, 62220 is a payload satellite owned by SpaceX/Seattle (US) in LEO that was launched on Thu, 05 Dec 2024 UTC via an FALCON 9 launch vehicle from the Air Force Western Test Range (AFWTR). Payload-class satellites include a variety of spacecraft equipped with specific instruments for various scientific and technological missions. These include communications satellites like Starlink; space stations such as the ISS; scientific satellites like the Hubble; Earth observation satellites from companies like Planet Labs, Umbra, and HawkEye 360; GPS; miniature CubeSats for education and research; and military/defense satellites.

Loading next visibility...
Identifier
62220, 2024-231C
Orbit
LEO
Last TLE update
3 hours ago
Origin
Manufacturer
SpaceX/Seattle
Mission
Operational Commercial Communications
Bus & Motor
STARLINK V2M, Unknown motor
Mass
730 kg wet, ~700 kg dry
Launch date (UTC)
2024-12-05 (7 months ago)
Launch vehicle
FALCON 9
Launch site
Air Force Western Test Range (AFWTR)
Object type
Payload
Rocket body
Debris
Shape & HBR
Box + 2 Pan, 29 m
Radar Cross Section
36.964 m², Large (>1 m²)

Expand to show TLE details & history

TLE from 3 hours ago
0 STARLINK-11466
1 62220U 24231C   25182.22517719  .00145397  00000-0  11812-2 0  9990
2 62220  53.1570 261.0805 0000947  88.1862 271.9264 15.69768307 33863
Epoch: 2025-07-01T05:24Z
TLE epoch observation values (Epoch: 2025-07-01T05:24:15.309Z)
Latitude
-0.00004°
Longitude
-99.507°
Altitude
360.453 km
Speed
7.694 km/s
True Right ascension
17h 24m 19s
True Declination
0° 00' 00"
Sunlit
Object was in full shadow at epoch
Visualization orbit readout
Latitude
28.90779°
Longitude
-75.87262°
Altitude
360.584 km
Speed
7.697 km/s
Apparent Right ascension
15h 32m 52s
Apparent Declination
-22° 07' 08"
Sunlit
Object is in full shadow
Visualization observer readout
Local Sidereal Time
20:15:10
Azimuth
240.888° WSW
Elevation
-0.302°
Doppler factor
1
Orbital elements
Apogee altitude
360.459 km
Perigee altitude
359.183 km
Semi-major axis
6,737.958 km
Eccentricity
0.00009
Inclination
53.157°
RAAN
261.0805°
Arg. of periapsis
88.1862°
True anomaly
Unknown
Mean anomaly
271.9264°
Eccentric anomaly
Unknown
Mean motion
3.9242 °/min
Orbital period
91.74 mins
BSTAR
0.0011812
Loading maneuver chart data...
Loading SW <> Apogee altitude chart data...
Loading historical data...
Loading historical data...
Loading historical data...
Loading historical data...
Loading historical data...
Loading historical data...
Loading historical data...

STARLINK-11466 Visibility forecast

Observer location: undefined°, undefined°

Span
Click to sort rows by Start time (UTC) header in descending order
Start Az.
Max El. time (UTC)
Max El. Az.
Max El.
End time (UTC)
End Az.
4 mins2025-07-01 08:40:01.127Z252.685° W2025-07-01 08:42:01.127Z320.775° NNW36.407°2025-07-01 08:44:01.127Z33.816° NE
4 mins2025-07-01 15:05:01.127Z306.229° NW2025-07-01 15:07:01.127Z157.391° SSE42.874°2025-07-01 15:09:01.127Z135.078° SSE
4 mins2025-07-02 07:34:01.127Z201.382° SSW2025-07-02 07:35:01.127Z169.794° S35.036°2025-07-02 07:38:01.127Z61.008° ENE
|